Flight Track Log - Related Links

Times and Time Zones

All times are in EDT time to prevent confusion due to time zone crossing. See the SNC1611 flight status page for this flight to view local times or setup timezone preferences in your user account.

Time Position Orientation Groundspeed Altitude Reporting Facility
EDT Latitude Longitude Course Direction KTS MPH feet Rate Location/Type
Mon 11:59:24 PM 40.0711 -87.4800 159° South 149 171 4,200  Level Indianapolis Center
Tue 12:00:25 AM 40.0383 -87.4439 140° Southeast 151 174 4,900 694 Climbing Indianapolis Center
Tue 12:01:25 AM 40.0014 -87.4100 145° Southeast 159 183 5,600 694 Climbing Indianapolis Center
Tue 12:02:26 AM 39.9650 -87.3797 147° Southeast 157 181 6,300 694 Climbing Indianapolis Center
Tue 12:03:26 AM 39.9303 -87.3433 141° Southeast 160 184 7,000 645 Climbing Indianapolis Center
Tue 12:04:00 AM 40.0319 -87.4363 159° South  Level Estimated
Tue 12:04:27 AM 39.8942 -87.3142 148° Southeast 155 178 7,600  Level Indianapolis Center
Tue 12:05:28 AM 39.8567 -87.2883 152° Southeast 154 177 8,100 496 Climbing Indianapolis Center
Tue 12:06:28 AM 39.8211 -87.2589 148° Southeast 153 176 8,600 309 Climbing Indianapolis Center
Tue 12:08:23 AM 39.7333 -87.2000 153° Southeast 180 207 9,000 132 Climbing Indianapolis TRACON
Tue 12:09:30 AM 39.6950 -87.1575 140° Southeast 187 215 9,000  Level Indianapolis Center
Tue 12:10:31 AM 39.6500 -87.1139 143° Southeast 198 228 9,000  Level Indianapolis Center
Tue 12:11:31 AM 39.6075 -87.0669 140° Southeast 201 231 9,000  Level Indianapolis Center
Tue 12:12:32 AM 39.5642 -87.0197 140° Southeast 203 234 9,000  Level Indianapolis Center
Tue 12:13:33 AM 39.5106 -86.9672 143° Southeast 202 232 9,000  Level Indianapolis Center
Tue 12:14:33 AM 39.4644 -86.9256 145° Southeast 203 234 9,000  Level Indianapolis Center
Tue 12:15:34 AM 39.4192 -86.8819 143° Southeast 203 234 9,000 -50 Level Indianapolis Center
Tue 12:16:34 AM 39.3711 -86.8389 145° Southeast 208 239 8,900 -298 Descending Indianapolis Center
Tue 12:17:35 AM 39.3258 -86.7942 143° Southeast 207 238 8,400 -545 Descending Indianapolis Center
Tue 12:18:35 AM 39.2808 -86.7403 137° Southeast 216 249 7,800 -645 Descending Indianapolis Center
Tue 12:19:36 AM 39.2342 -86.6878 139° Southeast 223 257 7,100 -393 Descending Indianapolis Center
Tue 12:20:37 AM 39.1844 -86.6456 147° Southeast 221 254 7,000 -50 Descending Indianapolis Center
Tue 12:21:37 AM 39.1350 -86.6139 154° Southeast 212 244 7,000  Level Indianapolis Center
Tue 12:22:38 AM 39.0881 -86.5694 144° Southeast 204 235 7,000  Level Indianapolis Center
Tue 12:23:38 AM 39.0428 -86.5261 143° Southeast 204 235 7,000  Level Indianapolis Center
Tue 12:24:39 AM 38.9986 -86.4800 141° Southeast 205 236 7,000  Level Indianapolis Center
Tue 12:25:39 AM 38.9556 -86.4314 139° Southeast 205 236 7,000  Level Indianapolis Center
Tue 12:26:40 AM 38.9114 -86.3861 141° Southeast 206 237 7,000  Level Indianapolis Center
Tue 12:27:40 AM 38.8653 -86.3406 142° Southeast 207 238 7,000  Level Indianapolis Center
Tue 12:28:41 AM 38.8236 -86.2911 137° Southeast 205 236 7,000  Level Indianapolis Center
Tue 12:29:41 AM 38.7803 -86.2419 139° Southeast 205 236 7,000  Level Indianapolis Center
Tue 12:30:42 AM 38.7386 -86.1906 136° Southeast 205 236 7,000 -49 Level Indianapolis Center
Tue 12:31:43 AM 38.7058 -86.1292 124° Southeast 208 239 6,900  Descending Indianapolis Center
Tue 12:32:43 AM 38.6714 -86.0708 127° Southeast 206 237 7,000 50 Climbing Indianapolis Center
Tue 12:33:44 AM 38.6372 -86.0125 127° Southeast 205 236 7,000 -198 Level Indianapolis Center
Tue 12:34:44 AM 38.6014 -85.9528 128° Southeast 209 241 6,600 -400 Descending Indianapolis Center
Tue 12:35:44 AM 38.5558 -85.8803 129° Southeast 216 249 6,200 -298 Descending Indianapolis Center
Tue 12:36:45 AM 38.5189 -85.8200 128° Southeast 215 247 6,000 -99 Descending Indianapolis Center
Tue 12:37:45 AM 38.4831 -85.7636 129° Southeast 208 239 6,000  Level Indianapolis Center
Tue 12:38:46 AM 38.4489 -85.7089 129° Southeast 201 231 6,000  Level Indianapolis Center
Tue 12:39:46 AM 38.3947 -85.6936 168° South 199 229 6,000  Level Indianapolis Center
Tue 12:40:47 AM 38.3411 -85.6769 166° South 197 227 6,000  Level Indianapolis Center
Tue 12:41:47 AM 38.2878 -85.6617 167° South 196 226 6,000 -50 Level Indianapolis Center
Tue 12:42:48 AM 38.2333 -85.6422 164° South 199 229 5,900 -298 Descending Indianapolis Center
Tue 12:43:48 AM 38.1803 -85.6217 163° South 199 229 5,400 -446 Descending Indianapolis Center
Tue 12:44:49 AM 38.1239 -85.5983 162° South 204 235 5,000 -248 Descending Indianapolis Center
Tue 12:45:49 AM 38.0672 -85.5803 166° South 206 237 4,900 -300 Descending Indianapolis Center
Tue 12:46:49 AM 38.0108 -85.5647 168° South 206 237 4,400 -446 Descending Indianapolis Center
Tue 12:47:50 AM 37.9569 -85.5475 166° South 204 235 4,000 -347 Descending Indianapolis Center
Tue 12:48:50 AM 37.9114 -85.5636 196° South 205 236 3,700 -248 Descending Indianapolis Center
Tue 12:49:51 AM 37.9369 -85.6111 304° West 181 208 3,500 -248 Descending Indianapolis Center
Tue 12:50:51 AM 37.9772 -85.6486 324° Northwest 177 204 3,200 -198 Descending Indianapolis Center
Tue 12:51:52 AM 38.0239 -85.6747 336° Northwest 176 203 3,100 -149 Descending Indianapolis Center
Tue 12:52:52 AM 38.0683 -85.6978 338° Northwest 177 204 2,900 -200 Descending Indianapolis Center

Login

Don't have an account? Register now (free) for customized features, flight alerts, and more!